| time (UTC) | temp C | wind direction | speed KPH | gust KPH | rain 1hr cm | rain 24hr cm | rain mn cm | humidity % | barometer mb |
| 20260903213007 | 25 | 310 | 1.6 | 0.0 | 0.00 | 0.00 | 0.15 | 48 | 1012.8 |
| 20260903211504 | 25 | 265 | 3.2 | 0.0 | 0.00 | 0.00 | 0.15 | 50 | 1012.7 |
| 20260903210114 | 25 | 255 | 3.2 | 0.0 | 0.00 | 0.00 | 0.15 | 48 | 1012.9 |
| 20260903204557 | 25 | 226 | 3.2 | 0.0 | 0.00 | 0.00 | 0.15 | 45 | 1012.8 |
| 20260903203052 | 25 | 294 | 1.6 | 0.0 | 0.00 | 0.00 | 0.15 | 43 | 1012.5 |
| 20260903201549 | 25 | 234 | 4.8 | 0.0 | 0.00 | 0.00 | 0.15 | 44 | 1012.7 |
| 20260903200045 | 25 | 231 | 8.0 | 0.0 | 0.00 | 0.00 | 0.15 | 42 | 1012.7 |
| 20260903194544 | 25 | 246 | 3.2 | 0.0 | 0.00 | 0.00 | 0.15 | 41 | 1012.9 |
| 20260903193040 | 25 | 236 | 4.8 | 0.0 | 0.00 | 0.00 | 0.15 | 37 | 1013.1 |
| 20260903191548 | 24 | 254 | 4.8 | 0.0 | 0.00 | 0.00 | 0.15 | 35 | 1013.2 |
| 20260903190034 | 24 | 277 | 3.2 | 0.0 | 0.00 | 0.00 | 0.15 | 32 | 1013.4 |
| 20260903184540 | 23 | 273 | 1.6 | 0.0 | 0.00 | 0.00 | 0.15 | 32 | 1013.5 |
| 20260903183022 | 23 | 267 | 4.8 | 0.0 | 0.00 | 0.00 | 0.15 | 30 | 1013.6 |
| 20260903181518 | 23 | 228 | 8.0 | 0.0 | 0.00 | 0.00 | 0.15 | 26 | 1013.8 |
| 20260903180015 | 23 | 257 | 3.2 | 0.0 | 0.00 | 0.00 | 0.15 | 24 | 1013.8 |
| 20260903174514 | 23 | 240 | 9.7 | 0.0 | 0.00 | 0.00 | 0.15 | 29 | 1013.8 |
| 20260903173017 | 23 | 239 | 1.6 | 0.0 | 0.00 | 0.00 | 0.15 | 24 | 1013.8 |
| 20260903171505 | 23 | 190 | 6.4 | 0.0 | 0.00 | 0.00 | 0.15 | 27 | 1013.9 |
| 20260903170007 | 23 | 299 | 8.0 | 0.0 | 0.00 | 0.00 | 0.15 | 20 | 1014.3 |
| 20260903164604 | 22 | 242 | 4.8 | 0.0 | 0.00 | 0.00 | 0.15 | 11 | 1014.5 |
| 20260903163051 | 22 | 310 | 4.8 | 0.0 | 0.00 | 0.00 | 0.15 | 100 | 1014.6 |
| 20260903161552 | 21 | 181 | 4.8 | 0.0 | 0.00 | 0.00 | 0.15 | 100 | 1014.6 |
| 20260903160043 | 21 | 200 | 4.8 | 0.0 | 0.00 | 0.00 | 0.15 | 100 | 1014.9 |
| 20260903154541 | 20 | 235 | 6.4 | 0.0 | 0.00 | 0.00 | 0.15 | 100 | 1014.9 |
| 20260903153038 | 20 | 239 | 4.8 | 0.0 | 0.00 | 0.00 | 0.15 | 100 | 1015.0 |
| 20260903151532 | 20 | 227 | 4.8 | 0.0 | 0.00 | 0.00 | 0.15 | 100 | 1015.1 |
| 20260903150033 | 20 | 240 | 3.2 | 0.0 | 0.00 | 0.00 | 0.15 | 100 | 1014.8 |
| 20260903144527 | 20 | 226 | 3.2 | 0.0 | 0.00 | 0.00 | 0.15 | 100 | 1014.6 |
| 20260903143043 | 20 | 198 | 1.6 | 0.0 | 0.00 | 0.00 | 0.15 | 100 | 1014.7 |
| 20260903141517 | 20 | 196 | 1.6 | 0.0 | 0.00 | 0.00 | 0.15 | 100 | 1014.5 |
| 20260903140018 | 20 | 200 | 3.2 | 0.0 | 0.00 | 0.00 | 0.15 | 100 | 1014.6 |
| 20260903134510 | 20 | 198 | 1.6 | 0.0 | 0.00 | 0.00 | 0.15 | 100 | 1014.6 |
| 20260903133005 | 20 | 200 | 4.8 | 0.0 | 0.00 | 0.00 | 0.15 | 100 | 1014.5 |
| 20260903131501 | 20 | 205 | 3.2 | 0.0 | 0.00 | 0.00 | 0.15 | 100 | 1014.5 |
| 20260903130117 | 19 | 204 | 1.6 | 0.0 | 0.00 | 0.00 | 0.15 | 100 | 1014.5 |
| 20260903124553 | 19 | 204 | 3.2 | 0.0 | 0.00 | 0.00 | 0.15 | 100 | 1014.5 |
| 20260903123049 | 19 | 208 | 4.8 | 0.0 | 0.00 | 0.00 | 0.15 | 100 | 1014.6 |
| 20260903121544 | 18 | 207 | 3.2 | 0.0 | 0.00 | 0.00 | 0.15 | 100 | 1014.7 |
| 20260903120041 | 18 | 222 | 0.0 | 0.0 | 0.00 | 0.00 | 0.15 | 100 | 1014.7 |
| 20260903114538 | 18 | 223 | 1.6 | 0.0 | 0.00 | 0.00 | 0.15 | 100 | 1014.6 |
| 20260903113041 | -17 | 0.0 | 0.0 | 0.00 | 0.00 | 0.15 | 1014.5 | ||
| 20260903111530 | -17 | 0.0 | 0.0 | 0.00 | 0.00 | 0.15 | 1014.6 | ||
| 20260903110028 | -17 | 0.0 | 0.0 | 0.00 | 0.00 | 0.15 | 1014.7 | ||
| 20260903104522 | -17 | 0.0 | 0.0 | 0.00 | 0.00 | 0.15 | 1014.5 | ||
| 20260903103017 | 18 | 209 | 3.2 | 0.0 | 0.00 | 0.00 | 0.15 | 100 | 1014.6 |
| 20260903101513 | 18 | 209 | 3.2 | 0.0 | 0.00 | 0.00 | 0.15 | 100 | 1014.8 |
| 20260903100011 | 18 | 209 | 3.2 | 0.0 | 0.00 | 0.00 | 0.15 | 100 | 1014.7 |
| 20260903094505 | 18 | 211 | 1.6 | 0.0 | 0.00 | 0.00 | 0.15 | 100 | 1014.7 |
| 20260903093001 | 18 | 219 | 0.0 | 0.0 | 0.00 | 0.00 | 0.15 | 100 | 1014.3 |
| 20260903091557 | 18 | 219 | 0.0 | 0.0 | 0.00 | 0.00 | 0.15 | 100 | 1014.2 |
| 20260903090053 | 18 | 219 | 0.0 | 0.0 | 0.00 | 0.00 | 0.15 | 100 | 1014.3 |
| 20260903084549 | 18 | 219 | 1.6 | 0.0 | 0.00 | 0.00 | 0.15 | 100 | 1014.6 |
| 20260903083051 | 18 | 219 | 0.0 | 0.0 | 0.00 | 0.00 | 0.15 | 100 | 1014.6 |
| 20260903081546 | 18 | 219 | 1.6 | 0.0 | 0.00 | 0.00 | 0.15 | 100 | 1014.7 |
| 20260903080039 | 18 | 217 | 0.0 | 0.0 | 0.00 | 0.00 | 0.15 | 100 | 1014.6 |
| 20260903074534 | 18 | 213 | 0.0 | 0.0 | 0.00 | 0.00 | 0.15 | 100 | 1014.4 |
| 20260903073032 | 18 | 213 | 0.0 | 0.0 | 0.00 | 0.00 | 0.15 | 100 | 1014.4 |
| 20260903071527 | 18 | 209 | 4.8 | 0.0 | 0.00 | 0.00 | 0.15 | 100 | 1014.3 |
| 20260903070021 | 18 | 217 | 8.0 | 0.0 | 0.00 | 0.00 | 0.15 | 100 | 1014.3 |
| 20260903064527 | 17 | 215 | 9.7 | 0.0 | 0.00 | 0.00 | 0.15 | 100 | 1014.3 |
| 20260903063015 | 17 | 202 | 8.0 | 0.0 | 0.00 | 0.00 | 0.15 | 100 | 1014.3 |
| 20260903061517 | 17 | 212 | 6.4 | 0.0 | 0.00 | 0.00 | 0.15 | 100 | 1014.3 |
| 20260903060014 | 17 | 247 | 6.4 | 0.0 | 0.00 | 0.00 | 0.15 | 100 | 1014.2 |
| 20260903054505 | 17 | 201 | 6.4 | 0.0 | 0.00 | 0.00 | 0.15 | 100 | 1014.3 |
| 20260903053101 | 17 | 233 | 6.4 | 0.0 | 0.00 | 0.00 | 0.15 | 100 | 1014.6 |
| 20260903051603 | 17 | 194 | 8.0 | 0.0 | 0.00 | 0.00 | 0.15 | 100 | 1015.1 |
| 20260903050052 | 17 | 191 | 8.0 | 0.0 | 0.00 | 0.00 | 0.13 | 100 | 1016.0 |
| 20260903044547 | 17 | 219 | 4.8 | 0.0 | 0.00 | 0.00 | 0.05 | 100 | 1016.0 |
| 20260903043045 | 17 | 171 | 8.0 | 0.0 | 0.00 | 0.00 | 0.03 | 100 | 1015.1 |
| 20260903041543 | 17 | 201 | 8.0 | 0.0 | 0.00 | 0.00 | 0.03 | 100 | 1015.3 |
| 20260903040035 | 17 | 193 | 8.0 | 0.0 | 0.00 | 0.00 | 0.00 | 100 | 1014.7 |
| 20260903034540 | 17 | 192 | 6.4 | 0.0 | 0.00 | 0.00 | 1.07 | 100 | 1016.0 |
| 20260903033027 | 17 | 195 | 4.8 | 0.0 | 0.00 | 0.00 | 0.97 | 100 | 1017.0 |
| 20260903031522 | 17 | 203 | 6.4 | 0.0 | 0.00 | 0.00 | 0.79 | 100 | 1016.8 |
| 20260903030019 | 17 | 200 | 8.0 | 0.0 | 0.00 | 0.00 | 0.66 | 100 | 1017.1 |
| 20260903024516 | 17 | 212 | 4.8 | 0.0 | 0.00 | 0.00 | 0.56 | 100 | 1016.8 |
| 20260903023011 | 18 | 183 | 6.4 | 0.0 | 0.00 | 0.00 | 0.51 | 100 | 1016.5 |
| 20260903021509 | 18 | 173 | 8.0 | 0.0 | 0.00 | 0.00 | 0.51 | 100 | 1017.0 |
| 20260903020005 | 18 | 178 | 9.7 | 0.0 | 0.00 | 0.00 | 0.51 | 100 | 1017.0 |
| 20260903014503 | 18 | 190 | 6.4 | 0.0 | 0.00 | 0.00 | 0.51 | 100 | 1017.1 |
| 20260903013100 | 18 | 140 | 4.8 | 0.0 | 0.00 | 0.00 | 0.51 | 100 | 1017.5 |
| 20260903011603 | 18 | 202 | 6.4 | 0.0 | 0.00 | 0.00 | 0.51 | 100 | 1017.7 |
| 20260903010051 | 18 | 195 | 4.8 | 0.0 | 0.00 | 0.00 | 0.51 | 100 | 1017.4 |
| 20260903004544 | 18 | 200 | 4.8 | 0.0 | 0.00 | 0.00 | 0.51 | 100 | 1017.5 |
| 20260903003039 | 18 | 184 | 8.0 | 0.0 | 0.00 | 0.00 | 0.51 | 100 | 1017.6 |
| 20260903001535 | 18 | 158 | 9.7 | 0.0 | 0.00 | 0.00 | 0.51 | 100 | 1017.2 |
| 20260903000031 | 18 | 188 | 11.3 | 0.0 | 0.00 | 0.00 | 0.51 | 100 | 1017.0 |
| 20260902234529 | 18 | 186 | 14.5 | 0.0 | 0.00 | 0.00 | 0.51 | 100 | 1016.2 |
| 20260902233025 | 18 | 137 | 8.0 | 0.0 | 0.00 | 0.00 | 0.51 | 100 | 1016.2 |
| 20260902231520 | 19 | 131 | 4.8 | 0.0 | 0.00 | 0.00 | 0.51 | 100 | 1017.0 |
| 20260902230015 | 19 | 188 | 3.2 | 0.0 | 0.00 | 0.00 | 0.51 | 100 | 1017.2 |
| 20260902224515 | 20 | 186 | 1.6 | 0.0 | 0.00 | 0.00 | 0.51 | 100 | 1017.2 |
| 20260902223010 | 20 | 182 | 4.8 | 0.0 | 0.00 | 0.00 | 0.51 | 100 | 1017.3 |
| 20260902221507 | 20 | 172 | 3.2 | 0.0 | 0.00 | 0.00 | 0.51 | 100 | 1017.7 |
| 20260902220001 | 20 | 169 | 4.8 | 0.0 | 0.00 | 0.00 | 0.51 | 100 | 1017.6 |
| 20260902214600 | 20 | 176 | 1.6 | 0.0 | 0.00 | 0.00 | 0.51 | 100 | 1017.6 |